Home > Time Zones > World Clock > Weather > Iran > Tehran > Past weeks

Flag for Iran Weather past 2 weeks in Tehran, Iran

Now
72 °F

Clear.


Feels Like: 77 °F
Forecast: 61 / 89 °F
Wind: 7 mph from Southwest

Location: Tehran-Mehrabad

Current Time: Sep 19, 2014 at 6:48:59 AM

Latest Report: Sep 19, 2014 at 6:30 AM


Visibility: 4 mi

Pressure: 30.07 "Hg

Humidity: 38%

Dew point: 45 °F

Location of TehranLocation

Historic Weather in Tehran — Graph

°F

Tehran temperature yesterday

Maximum temperature yesterday: 88 °F (at 4:00 PM)
Minimum temperature yesterday: 68 °F (at 5:00 AM)
Average temperature yesterday: 78 °F

Past Weeks' High & Low Weather Summary

 TemperatureHumidityPressure
High133 °F (Sep 9, 5:00 AM)56% (Sep 6, 5:30 AM)30.09 "Hg (Sep 6, 5:30 AM)
Low68 °F (Sep 6, 5:30 AM)5% (Sep 9, 5:00 AM)29.71 "Hg (Sep 5, 4:00 PM)
Average84 °F18%29.92 "Hg
* Reported Sep 4 5:30 AM — Sep 19 5:30 AM, Tehran, Weather by CustomWeather, © 2014

Note: Actual official high and low records may vary slightly from our data, if they occured in-between our weather recording intervals... More about our weather records

Advertising

Tehran weather history for previous 24 hours

 ConditionsComfort  
Time TempWeatherWind HumidityBarometerVisibility
5:30 AM
Sep 19
73 °FClear.5 mph33%30.07 "Hg4 mi
5:00 AM73 °FClear.No wind31%30.07 "Hg4 mi
4:30 AM73 °FClear.5 mph33%30.07 "Hg4 mi
4:00 AM75 °FClear.No wind31%30.07 "Hg4 mi
3:30 AM75 °FClear.5 mph31%30.07 "Hg4 mi
3:00 AM75 °FClear.5 mph31%30.07 "Hg4 mi
2:30 AM75 °FClear.No wind31%30.07 "Hg4 mi
2:00 AM75 °FClear.No wind36%30.07 "Hg4 mi
1:30 AM77 °FClear.5 mph30%30.07 "Hg4 mi
1:00 AM77 °FClear.7 mph32%30.07 "Hg4 mi
12:30 AM75 °FClear.5 mph36%30.07 "Hg4 mi
12:00 AM75 °FClear.5 mph36%30.07 "Hg4 mi
11:30 PM
Sep 18
75 °FClear.5 mph36%30.07 "Hg4 mi
11:00 PM77 °FClear.5 mph34%30.07 "Hg4 mi
10:30 PM77 °FClear.No wind32%30.07 "Hg4 mi
10:00 PM79 °FClear.5 mph30%30.04 "Hg4 mi
9:30 PM79 °FClear.No wind26%30.04 "Hg4 mi
9:00 PM81 °FClear.2 mph26%30.04 "Hg4 mi
8:30 PM84 °FSunny.5 mph19%30.04 "Hg4 mi
8:00 PM84 °FSunny.7 mph19%30.04 "Hg4 mi
7:30 PM84 °FSunny.7 mph19%30.01 "Hg4 mi
7:00 PM86 °FSunny.5 mph18%30.01 "Hg10 mi
6:30 PM86 °FPassing clouds.5 mph18%30.01 "HgN/A
6:00 PM88 °FPassing clouds.5 mph17%29.98 "HgN/A
5:30 PM88 °FPassing clouds.7 mph17%29.98 "HgN/A
5:00 PM88 °FPassing clouds.7 mph17%29.98 "HgN/A
4:30 PM88 °FPassing clouds.7 mph18%30.01 "HgN/A
4:00 PM88 °FPassing clouds.7 mph18%30.01 "HgN/A
3:30 PM86 °FPassing clouds.7 mph19%30.01 "HgN/A
3:00 PM86 °FPassing clouds.7 mph19%30.04 "HgN/A
2:30 PM86 °FPassing clouds.12 mph20%30.04 "HgN/A
2:00 PM86 °FSunny.5 mph22%30.04 "Hg10 mi
1:30 PM84 °FSunny.7 mph22%30.04 "Hg10 mi
1:00 PM84 °FSunny.5 mph22%30.04 "Hg10 mi
12:30 PM82 °FSunny.7 mph23%30.07 "Hg10 mi
12:00 PM82 °FSunny.9 mph21%30.07 "Hg10 mi
11:30 AM81 °FSunny.9 mph26%30.07 "Hg10 mi
11:00 AM81 °FSunny.9 mph24%30.07 "Hg10 mi
10:30 AM79 °FSunny.9 mph26%30.07 "Hg10 mi
10:00 AM79 °FSunny.7 mph30%30.07 "Hg4 mi
9:30 AM79 °FSunny.9 mph30%30.07 "Hg4 mi
9:00 AM75 °FSunny.No wind39%30.04 "Hg4 mi
8:30 AM73 °FSunny.5 mph41%30.04 "Hg10 mi
7:50 AM70 °FClear.No wind43%30.01 "Hg10 mi
7:30 AM70 °FClear.No wind43%30.01 "Hg10 mi
7:00 AM68 °FClear.7 mph49%29.98 "Hg10 mi
6:30 AM68 °FClear.7 mph53%29.98 "Hg10 mi
6:00 AM68 °FClear.No wind53%29.95 "Hg10 mi
Weather by CustomWeather, © 2014

See weather overviewHow to use our weather pages